Theta_e
302 301 302 305 306 307 310 310 310 309 309 309 309 309 309 309 309 309 308 305 304 307 308 311 309 309 310 309 310 308 309 311 314 314 316 315 315 315 315 317 323 324 330 332 351
302 302 302 305 307 305 306 307 310 311 310 310 309 309 309 309 308 308 305 303 304 305 309 310 310 309 309 309 310 310 309 311 312 313 315 313 315 315 316 318 320 324 321 348 350
306 306 309 309 309 306 306 307 309 310 311 310 310 309 309 308 307 305 305 305 304 305 308 310 311 310 309 309 309 308 310 312 313 313 315 315 313 315 316 318 318 319 318 327 344
311 311 311 311 311 310 310 307 308 311 311 310 310 309 308 308 303 312 316 313 304 304 306 307 306 310 311 309 309 310 309 312 313 314 313 314 314 314 316 316 317 317 316 316 328
312 313 313 312 311 311 311 310 308 309 310 310 310 309 308 308 307 303 311 313 310 307 308 305 306 307 309 310 309 309 311 311 311 311 311 311 311 313 314 314 313 313 315 314 314
311 312 313 312 312 312 312 312 310 309 310 310 310 309 308 307 303 315 317 318 308 308 308 305 305 308 310 310 310 310 311 311 310 310 310 311 312 311 313 314 314 313 313 314 312
311 311 311 312 312 312 312 312 310 309 311 310 310 309 311 309 308 310 316 315 308 307 307 307 307 310 311 310 308 310 312 310 310 311 311 309 311 311 313 314 314 313 311 311 311
310 311 311 310 311 312 311 311 310 308 311 310 310 310 311 311 313 313 314 312 309 308 309 309 308 309 311 311 312 312 311 313 313 311 312 312 312 314 313 313 313 312 311 311 311
311 312 312 311 310 311 310 309 309 313 312 311 311 310 311 312 315 315 313 310 310 309 310 309 308 310 312 312 312 311 313 312 314 312 313 312 312 313 313 311 311 311 311 311 310
312 311 311 311 310 310 309 309 311 312 311 311 312 313 311 315 317 315 313 310 309 308 308 310 310 311 309 310 312 314 313 313 314 315 312 313 312 312 312 313 312 311 311 311 311
311 311 310 310 310 309 308 308 313 314 313 314 313 314 313 316 317 315 313 313 313 311 312 311 311 311 311 312 313 313 313 314 313 313 314 313 312 312 311 312 309 309 309 310 310
310 310 310 309 309 308 307 308 308 311 315 314 315 314 314 316 318 315 314 314 314 314 311 310 312 311 312 312 313 313 314 313 313 313 312 313 313 312 312 312 312 311 310 310 312
309 309 309 308 308 307 307 308 310 311 311 315 317 316 317 316 318 318 313 311 313 312 310 311 313 312 313 313 314 313 313 313 314 314 313 313 313 314 313 312 312 312 310 311 312
308 309 309 308 308 307 306 310 311 311 314 317 322 320 318 317 319 317 311 312 314 312 309 311 311 313 312 313 312 314 313 315 315 314 315 313 313 312 313 312 312 312 310 311 311
307 309 307 307 307 307 310 312 310 309 324 319 321 318 319 319 318 316 309 309 313 315 312 313 314 313 313 313 313 314 314 314 315 313 312 312 312 310 312 315 313 312 312 315 314
307 308 306 307 306 308 310 311 311 319 324 322 319 320 319 318 319 316 312 311 311 314 314 314 314 314 314 314 312 313 313 310 308 308 313 311 312 311 311 313 314 316 316 317 314
307 306 306 306 307 309 310 309 319 324 321 321 319 319 319 319 317 317 314 313 314 314 315 315 315 315 315 315 314 311 310 312 314 312 314 311 312 311 312 314 317 318 317 314 312
305 305 308 308 308 310 310 314 322 320 322 327 319 320 319 317 318 316 314 314 313 314 316 317 318 315 315 314 314 312 311 312 316 315 314 314 316 315 317 319 317 315 314 313 311
304 307 306 308 307 308 312 321 320 322 328 327 321 320 318 318 317 316 315 314 314 313 317 317 321 320 319 318 316 314 312 310 312 316 317 315 316 315 320 320 319 317 316 314 312
305 304 304 310 308 310 317 321 320 323 326 325 326 320 319 321 320 316 317 318 321 315 315 320 324 321 321 319 317 317 314 319 315 322 323 318 320 318 323 320 319 318 316 315 314
305 305 311 312 310 314 321 320 320 324 325 326 326 326 322 324 323 323 319 320 319 319 316 317 319 321 318 318 320 319 319 317 316 316 319 320 319 316 320 318 316 315 315 314 315
306 307 311 310 317 315 319 322 319 325 324 324 323 324 325 322 322 325 324 321 319 318 320 318 316 321 320 315 317 317 321 318 321 322 315 315 317 315 316 316 315 314 314 313 311
306 307 310 314 320 319 320 322 322 324 324 322 323 322 320 322 323 322 320 317 319 321 320 317 317 316 311 316 315 317 317 319 317 316 322 326 321 317 317 317 316 315 313 311 311
307 310 315 317 317 319 321 322 324 324 324 322 317 317 318 319 318 321 321 321 320 320 320 319 315 313 315 312 315 318 316 316 314 317 319 321 321 319 318 317 314 311 310 310 309
307 313 314 319 320 319 318 319 323 324 321 321 319 317 316 317 316 317 316 320 318 319 314 312 315 317 315 316 316 315 316 314 314 314 315 314 318 316 315 313 311 311 310 310 310
310 314 313 315 316 319 317 318 321 319 316 316 317 315 314 315 315 315 313 316 319 315 315 310 316 315 316 315 315 315 313 313 313 313 313 313 314 311 310 310 311 310 310 310 309
307 310 311 313 315 319 318 317 316 317 315 315 314 314 313 312 310 308 308 308 312 315 313 312 312 312 314 312 311 310 310 311 310 310 311 312 311 312 313 312 310 309 310 310 309
Wind_Speed
17 17 17 18 18 17 14 13 12 11 10 12 12 13 14 13 14 13 13 20 23 8 11 14 15 9 3 1 2 3 3 4 5 6 4 1 5 6 3 3 3 4 1 3 22
18 18 17 17 17 17 18 16 13 12 10 11 10 11 11 12 14 22 35 22 19 16 12 15 8 11 3 3 2 5 4 9 7 5 2 5 2 5 5 5 5 2 7 13 24
18 18 18 18 18 18 17 18 16 14 13 10 9 8 8 8 6 12 21 31 26 24 16 11 19 8 6 3 5 5 5 6 4 5 2 3 7 3 6 2 2 4 5 5 6
18 19 19 19 18 18 19 17 18 16 14 12 8 6 4 3 5 3 3 9 36 28 20 11 5 8 6 8 6 4 8 4 5 3 5 3 1 5 4 5 2 3 2 5 8
21 20 20 20 20 20 20 20 20 18 16 12 7 4 1 2 11 8 7 6 31 30 23 8 7 6 7 7 6 5 3 6 11 8 5 5 6 6 5 10 8 6 4 7 5
23 23 21 21 21 21 20 22 21 22 16 12 8 6 1 4 6 10 6 22 37 31 16 13 9 6 6 6 8 7 8 10 5 7 4 6 8 7 6 8 7 5 7 6 8
22 23 24 23 22 21 21 22 23 24 15 9 10 8 4 18 5 16 9 18 35 27 12 16 7 8 7 4 5 3 3 6 6 5 6 7 7 7 12 7 8 8 8 8 9
21 23 23 24 24 21 21 22 26 24 12 11 11 7 8 9 8 5 12 10 25 16 10 20 11 2 3 3 3 6 2 3 3 9 5 10 6 4 10 7 9 9 9 8 9
22 22 23 23 23 22 22 23 21 8 9 12 8 5 10 8 7 10 15 11 20 12 6 9 8 5 3 5 2 4 3 5 5 9 4 5 4 6 3 6 8 10 10 9 9
25 23 23 23 22 22 21 22 3 6 8 8 4 2 8 4 6 10 16 20 5 7 0 4 3 4 2 4 6 6 5 4 5 1 3 2 6 7 5 4 8 9 9 8 9
25 26 26 25 24 21 20 6 2 3 9 10 8 5 4 3 8 8 15 8 6 5 6 5 4 6 6 5 5 5 3 2 2 3 3 3 4 11 8 3 8 9 8 9 10
24 25 25 26 26 25 19 4 8 1 7 23 13 12 9 4 4 4 21 7 5 5 4 4 4 7 6 5 3 2 2 3 6 5 4 6 7 7 7 5 5 5 8 10 5
27 27 27 27 30 11 8 16 3 8 3 6 10 9 6 9 7 6 12 6 5 5 5 5 3 8 6 4 5 3 4 3 5 4 3 4 6 4 5 5 5 4 4 5 6
28 27 27 28 9 5 8 5 7 4 3 5 7 8 7 7 4 7 11 7 2 9 9 5 4 6 4 4 6 3 8 9 5 3 3 3 5 4 4 7 6 7 4 7 7
29 27 26 19 16 5 4 6 10 5 3 4 5 7 9 10 6 6 9 4 8 6 7 7 6 4 3 6 6 7 5 6 5 3 4 1 1 7 2 3 5 7 7 6 7
31 30 26 18 12 24 8 10 3 2 6 3 5 8 9 6 1 4 5 6 6 5 2 7 2 5 8 5 9 4 5 7 4 3 3 5 6 4 4 4 2 4 6 7 9
35 34 33 23 7 2 5 5 2 4 5 5 5 7 10 13 11 8 8 10 6 6 5 3 3 2 3 2 2 5 6 2 2 1 5 1 2 7 3 4 3 7 8 8 8
39 41 28 24 18 15 5 1 5 5 7 4 6 12 7 6 4 4 8 5 2 7 2 5 3 7 4 8 8 6 8 5 6 4 4 1 5 4 2 5 2 2 2 5 8
39 18 14 13 23 20 3 6 6 4 1 4 1 9 5 6 6 5 8 10 5 6 6 6 2 5 2 4 9 4 4 6 7 3 3 3 5 6 2 3 5 6 7 7 7
22 12 9 6 27 12 3 8 5 3 4 2 3 4 6 8 5 5 5 3 6 5 3 5 5 1 3 2 5 4 7 3 2 5 4 3 3 5 1 5 5 7 7 6 5
12 5 6 8 25 2 6 6 9 3 4 3 4 5 2 6 5 4 6 2 3 3 4 4 4 2 1 5 1 3 2 6 5 4 5 2 5 4 6 6 6 6 7 7 8
4 4 6 21 3 2 3 5 8 4 2 3 3 7 1 4 4 3 5 3 3 5 5 1 4 3 3 4 2 2 3 3 4 4 2 4 6 2 7 4 4 7 7 6 7
5 4 4 6 3 3 4 10 11 6 4 3 2 1 5 3 5 3 5 6 4 4 4 3 2 3 4 4 5 6 3 4 4 3 5 5 5 2 3 5 2 5 7 7 7
2 4 2 2 3 2 3 4 7 1 4 1 5 5 7 4 5 3 3 7 4 5 13 7 3 3 6 3 3 3 2 2 4 3 3 5 3 7 9 10 8 5 5 5 6
2 3 2 3 2 3 1 4 3 3 6 5 7 5 6 4 4 4 4 3 8 7 6 4 4 2 2 3 3 4 4 4 6 5 6 4 7 6 8 7 7 4 5 6 6
2 2 3 3 7 6 1 3 2 3 4 5 4 4 5 5 1 7 7 3 3 6 4 4 3 2 2 2 1 4 7 6 6 5 6 7 12 12 10 3 4 4 4 4 4
7 5 2 4 7 1 2 4 9 4 7 8 5 10 12 4 5 6 6 5 6 6 3 3 5 3 2 2 3 6 10 9 4 5 6 6 8 2 1 4 5 5 4 1 4
Wind_Direction
336 335 336 336 338 335 332 332 330 313 297 289 285 283 285 285 285 266 235 220 234 234 191 164 140 151 174 191 191 110 83 201 226 162 225 113 24 316 272 287 43 9 243 270 143
338 336 335 335 335 335 332 333 329 324 305 293 285 286 290 293 285 252 237 231 221 192 175 160 135 131 127 211 215 170 174 216 205 193 178 327 86 307 333 7 34 25 41 113 139
339 336 334 334 333 332 332 328 327 326 316 295 287 285 292 309 284 247 256 233 214 193 182 159 139 125 167 182 204 194 209 203 231 222 131 104 322 266 298 58 115 89 95 91 117
337 333 332 330 329 328 328 324 325 319 309 299 279 280 287 317 225 334 161 221 198 191 191 153 124 144 154 178 204 216 194 212 298 188 201 224 270 308 219 270 312 172 110 133 163
330 327 326 326 326 325 322 324 323 321 309 297 256 249 228 237 252 294 299 201 175 173 173 155 152 138 174 183 155 211 219 198 235 244 270 328 252 228 256 281 294 292 200 166 188
324 323 322 320 321 321 318 318 318 321 310 289 222 168 149 270 263 315 275 168 175 172 160 153 184 182 162 189 175 211 200 242 252 250 213 194 266 127 274 263 264 238 265 250 191
321 321 320 321 320 318 316 316 313 318 302 255 201 178 213 243 198 316 175 171 172 172 168 178 181 170 153 151 213 177 211 253 224 233 231 166 297 197 234 239 246 227 225 241 249
324 322 321 321 320 318 318 313 315 308 273 198 186 195 247 248 282 272 181 145 174 169 176 187 186 90 192 190 62 158 129 191 243 164 236 151 253 260 236 211 242 251 256 239 239
322 319 319 318 319 319 320 317 324 314 169 165 167 204 262 294 255 225 175 151 173 183 181 161 148 211 140 144 69 11 181 197 278 202 135 162 212 248 242 192 254 257 245 236 251
321 319 319 319 317 319 322 327 302 103 137 165 237 270 256 236 191 168 176 148 132 121 279 162 160 168 100 137 191 177 189 220 211 147 169 159 245 277 275 202 258 263 240 236 245
324 322 321 321 318 318 322 343 229 227 220 201 192 225 286 264 167 165 165 168 123 137 173 202 151 194 182 174 155 157 178 198 243 283 1 238 257 278 293 316 280 266 249 229 229
321 320 320 319 317 309 294 220 229 354 277 228 238 260 280 10 341 162 151 144 147 168 137 75 196 203 163 147 131 110 195 257 283 262 164 288 281 276 285 248 244 271 267 259 288
323 322 322 323 318 305 223 225 175 353 257 257 196 222 222 152 208 225 151 139 144 145 168 148 227 153 147 139 138 177 171 235 232 358 287 330 312 293 302 298 333 307 265 260 266
320 319 321 328 321 327 260 298 288 225 278 249 191 233 175 169 222 192 167 137 159 172 156 196 235 136 150 174 148 251 205 215 224 114 215 101 279 294 261 298 303 301 322 302 310
319 316 318 320 288 252 216 46 93 140 277 170 161 147 161 166 136 203 172 83 158 158 121 227 174 152 146 207 151 221 156 182 187 163 129 273 31 270 304 255 271 301 296 294 272
318 314 316 315 257 252 252 303 166 77 249 198 135 166 160 132 61 115 149 99 143 122 89 192 211 147 178 192 170 132 105 47 57 92 237 212 177 268 209 214 306 291 294 300 307
318 312 302 270 236 269 48 144 144 201 299 183 173 153 174 160 157 175 162 167 156 128 169 150 190 259 155 141 55 81 67 14 357 354 225 348 165 239 274 275 258 290 300 318 319
321 314 299 264 244 208 355 135 215 235 256 1 132 140 167 139 187 135 136 137 125 117 140 165 190 178 201 182 187 180 152 156 196 200 240 11 238 242 199 350 34 53 353 30 3
327 311 283 266 209 188 187 208 207 224 310 319 217 157 163 176 138 129 164 169 156 160 143 151 208 301 131 162 144 173 154 184 106 15 81 241 292 321 47 58 52 38 45 38 40
320 305 266 241 172 161 179 230 223 227 349 100 294 191 163 163 117 120 147 185 150 184 148 186 129 214 312 97 47 141 154 93 3 142 217 277 280 232 80 65 22 30 27 37 40
312 313 319 193 153 163 208 225 239 265 6 154 252 295 138 140 120 114 163 52 133 100 114 131 109 215 121 24 110 31 89 57 110 127 171 175 258 222 154 79 15 358 333 341 8
299 310 36 150 157 179 198 202 242 254 40 303 176 214 172 44 77 109 131 104 134 132 96 72 127 127 113 292 251 67 124 121 138 195 140 143 263 291 144 110 35 355 353 331 324
311 272 329 220 200 206 247 231 240 246 131 313 171 80 13 89 104 92 91 359 58 86 128 164 26 84 10 4 11 73 50 104 108 75 185 178 255 213 311 312 276 350 340 321 318
288 303 286 212 252 107 355 235 203 223 185 31 318 162 112 41 7 103 92 28 29 80 90 82 79 142 187 155 142 140 168 163 114 128 201 223 255 298 310 320 330 17 327 11 48
224 268 354 311 296 330 83 299 199 184 115 94 282 68 120 136 70 98 82 95 30 20 51 86 115 91 121 127 136 192 218 201 198 199 186 244 235 253 261 276 304 4 74 65 41
282 308 336 288 310 251 220 29 257 110 18 159 164 22 65 103 169 167 122 95 156 32 59 24 117 104 73 14 283 268 248 218 228 246 263 267 279 252 267 244 156 126 107 69 25
322 307 306 321 314 228 39 24 324 142 20 56 93 88 75 94 86 93 77 92 137 130 114 96 129 103 209 18 309 285 234 216 187 196 175 199 233 223 184 194 173 170 142 27 328